Simultaneous Nadir Overpasses (SNOs) Predictions

Prediction of SNOs between GOES-16 and LANDSAT-8 Satellite Orbit:

Table of predicted SNOs for the next 14.0 days since TLE Epoch: 11/25/2023
Index Date Time (GOES-16) GOES-16 Lat,Lon LANDSAT-8 Lat,Lon Distance(km) Time Diff (sec)
1 11/26/2023 15:15:31 -0.04, -75.26 -0.03, -75.43 18.67 80
2 11/28/2023 15:00:39 -0.04, -75.31 -0.65, -72.47 323.81 80
3 11/29/2023 03:24:43 0.04, -75.30 -0.45, -77.66 268.17 80
4 12/01/2023 03:09:50 0.03, -75.36 0.14, -74.69 75.20 80
5 12/03/2023 02:57:38 0.02, -75.42 0.82, -71.74 419.39 80
6 12/03/2023 15:18:53 -0.02, -75.47 0.28, -76.89 161.37 80
7 12/05/2023 15:06:40 -0.02, -75.55 -0.36, -73.93 184.10 80
8 12/06/2023 03:30:44 0.02, -75.54 -0.72, -79.12 406.86 80
9 12/08/2023 03:18:30 0.01, -75.62 -0.10, -76.15 60.47 80
